This demonstration page uses our WeatherBlox Daily Observations layout. Learn more.

Left ArrowRight Arrow

47.50024, -111.30081

Hourly Observations for January 4, 2022

Temp ( °F °C ) Dew Point ( °F °C ) Humidity (%) Winds ( mph kmh ) Pressure ( in mb ) Visibility ( mi km ) Precip ( " mm )
12:05 am 00:05 Cloudy with Light Snow 0 -17.8 -4 -20 83 83 N 12 19 30.06 1018 2 3 0.00 0.00
12:27 am 00:27 Cloudy with Light Snow 0 -17.8 -5 -20.6 79 79 N 13 20 30.06 1018 2 3 0.00 0.00
12:43 am 00:43 Cloudy with Light Snow 0 -17.8 -6 -21.1 76 76 N 13 20 30.06 1018 2 3 0.00 0.00
12:53 am 00:53 Cloudy with Light Snow 0 -17.8 -5 -20.6 79 79 NNW 9 15 29.88 1012 2 3 0.00 0.00
1:01 am 01:01 Cloudy 0 -17.8 -5 -20.6 79 79 NNW 9 15 30.10 1019 8 13 0.00 0.00
1:28 am 01:28 Cloudy with Light Snow -1 -18.3 -6 -21.1 79 79 NNW 15 24 30.13 1020 1 1 0.00 0.00
1:33 am 01:33 Cloudy with Light Snow -1 -18.3 -6 -21.1 79 79 NNW 13 20 30.14 1021 1 1 0.01 0.25
1:42 am 01:42 Cloudy with Snow -1 -18.3 -6 -21.1 79 79 N 13 20 30.12 1020 1 1 0.03 0.76
1:53 am 01:53 Mostly Cloudy with Snow -2 -18.9 -7 -21.7 79 79 N 13 20 29.89 1012 1 1 0.05 1.27
2:04 am 02:04 Cloudy with Light Snow -3 -19.4 -7 -21.7 82 82 NNW 13 20 30.17 1022 1 2 0.01 0.25
2:13 am 02:13 Cloudy with Light Snow -3 -19.4 -8 -22.2 79 79 NNW 14 22 30.18 1022 3 4 0.01 0.25
2:22 am 02:22 Cloudy with Light Snow -4 -20 -10 -23.3 75 75 NNW 14 22 30.21 1023 3 5 0.01 0.25
2:53 am 02:53 Cloudy -5 -20.6 -11 -23.9 75 75 NNW 13 20 29.99 1016 8 13 0.01 0.25
3:19 am 03:19 Cloudy -6 -21.1 -13 -25 71 71 NNW 17 28 30.28 1026 10 16 0.00 0.00
3:53 am 03:53 Cloudy -7 -21.7 -14 -25.6 71 71 NNW 21 33 30.06 1018 9 14 0.00 0.00
4:25 am 04:25 Cloudy with Light Snow -8 -22.2 -13 -25 78 78 NNW 18 30 30.35 1028 2 3 0.00 0.00
4:28 am 04:28 Cloudy with Light Snow -8 -22.2 -13 -25 78 78 NNW 16 26 30.35 1028 1 1 0.00 0.00
4:32 am 04:32 Cloudy with Heavy Snow -8 -22.2 -13 -25 78 78 NNW 17 28 30.36 1028 0 0 0.01 0.25
4:46 am 04:46 Mostly Cloudy with Light Snow -9 -22.8 -14 -25.6 78 78 NNW 15 24 30.38 1029 1 1 0.03 0.76
4:49 am 04:49 Mostly Cloudy with Light Snow -9 -23 -15 -26 77 77 NNW 16 26 30.39 1029 1 2 0.03 0.76
4:53 am 04:53 Cloudy with Light Snow -9 -22.8 -14 -25.6 78 78 NNW 15 24 30.13 1020 1 2 0.03 0.76
5:15 am 05:15 Cloudy with Light Snow -10 -23.3 -16 -26.7 74 74 NNW 15 24 30.41 1030 3 5 0.01 0.25
5:38 am 05:38 Mostly Cloudy -11 -23.9 -17 -27.2 74 74 NNW 10 17 30.46 1031 10 16 0.01 0.25
5:53 am 05:53 Mostly Cloudy -11 -23.9 -18 -27.8 70 70 NW 8 13 30.19 1022 10 16 0.01 0.25
6:53 am 06:53 Cloudy -9 -22.8 -17 -27.2 67 67 NW 13 20 30.22 1023 10 16 0.00 0.00
7:02 am 07:02 Cloudy with Light Snow -9 -22.8 -16 -26.7 71 71 NW 12 19 30.50 1033 1 2 0.00 0.00
7:18 am 07:18 Mostly Cloudy with Snow -10 -23.3 -15 -26.1 78 78 NW 12 19 30.52 1033 1 1 0.01 0.25
7:38 am 07:38 Cloudy with Light Snow -10 -23.3 -17 -27.2 70 70 NW 12 19 30.54 1034 3 5 0.02 0.51
7:46 am 07:46 Cloudy with Light Snow -11 -23.9 -19 -28.3 67 67 NNW 15 24 30.55 1034 6 10 0.02 0.51
7:53 am 07:53 Cloudy -12 -24.4 -21 -29.4 63 63 NW 13 20 30.27 1025 9 14 0.02 0.51
8:04 am 08:04 Mostly Cloudy -12 -24.4 -20 -28.9 66 66 NW 8 13 30.57 1035 10 16 0.00 0.00
8:53 am 08:53 Sunny -15 -26.1 -23 -30.6 66 66 NW 10 17 30.37 1029 10 16 0.00 0.00
9:53 am 09:53 Sunny -13 -25 -22 -30 63 63 NW 7 11 30.43 1031 10 16 0.00 0.00
10:53 am 10:53 Sunny -12 -24.4 -22 -30 60 60 NW 10 17 30.46 1032 10 16 0.00 0.00
11:53 am 11:53 Sunny -11 -23.9 -21 -29.4 61 61 NW 12 19 30.48 1032 10 16 0.00 0.00
12:53 pm 12:53 Sunny -11 -23.9 -22 -30 57 57 NW 10 17 30.48 1032 10 16 0.00 0.00
1:53 pm 13:53 Mostly Cloudy -10 -23.3 -21 -29.4 57 57 WNW 9 15 30.49 1033 10 16 0.00 0.00
2:53 pm 14:53 Cloudy -10 -23.3 -21 -29.4 57 57 W 7 11 30.50 1033 10 16 0.00 0.00
3:53 pm 15:53 Mostly Sunny -13 -25 -22 -30 63 63 SW 6 9 30.54 1034 10 16 0.00 0.00
4:53 pm 16:53 Cloudy -11 -23.9 -20 -28.9 63 63 W 6 9 30.55 1035 10 16 0.00 0.00
5:53 pm 17:53 Cloudy -11 -23.9 -19 -28.3 67 67 W 3 6 30.57 1035 10 16 0.00 0.00
6:12 pm 18:12 Cloudy -11 -23.9 -19 -28.3 67 67 W 5 7 30.74 1041 10 16 0.00 0.00
6:23 pm 18:23 Cloudy -11 -23.9 -19 -28.3 67 67 W 6 9 30.73 1041 10 16 0.00 0.00
6:53 pm 18:53 Cloudy -13 -25 -20 -28.9 70 70 Calm 30.57 1035 10 16 0.00 0.00
7:53 pm 19:53 Cloudy -15 -26.1 -22 -30 70 70 W 3 6 30.57 1035 10 16 0.00 0.00
8:53 pm 20:53 Cloudy -12 -24.4 -20 -28.9 66 66 Calm 30.57 1035 10 16 0.00 0.00
9:53 pm 21:53 Cloudy -11 -23.9 -21 -29.4 61 61 NW 5 7 30.56 1035 10 16 0.00 0.00
10:50 pm 22:50 Cloudy with Light Snow -11 -24 -20 -29 63 63 Calm 30.71 1040 2 3 0.00 0.00
10:53 pm 22:53 Cloudy with Light Snow -11 -23.9 -20 -28.9 63 63 Calm 30.54 1034 2 2 0.00 0.00
11:00 pm 23:00 Cloudy with Light Snow -11 -23.9 -19 -28.3 67 67 Calm 30.71 1040 1 1 0.00 0.00
11:13 pm 23:13 Mostly Cloudy with Light Snow -12 -24.4 -18 -27.8 73 73 N 3 6 30.72 1040 1 1 0.01 0.25
11:38 pm 23:38 Cloudy with Light Snow -12 -24.4 -17 -27.2 78 78 N 5 7 30.72 1040 2 2 0.02 0.51
11:53 pm 23:53 Cloudy with Light Snow -12 -24.4 -17 -27.2 78 78 N 3 6 30.53 1034 8 13 0.02 0.51

Powered by AerisWeather